Theta_e
316 317 320 322 319 316 315 314 314 315 314 315 317 316 316 316 314 315 316 318 317 316 317 317 315 314 313 313 313 312 312 313 312 312 313 313 313 313 313 313 313 313 312 311 309 309 309 308 308 308 308 307 307 306 304 303 302 301 300 300 299 299 299 298 298 298 297 297 297 296 296 296 295 295 295 295 295 294 294 294 293 292 291 291 291 290
317 317 319 319 316 315 316 316 314 314 314 315 316 316 316 317 316 315 316 317 316 315 316 316 315 314 313 313 313 313 312 313 313 312 312 312 312 312 313 312 313 313 313 315 313 308 307 308 307 307 307 306 305 304 304 303 302 301 300 300 299 298 298 298 298 298 297 297 297 296 296 296 295 295 295 295 295 294 294 294 293 292 291 291 290 290
317 318 317 315 316 315 316 316 315 314 315 316 316 317 317 318 316 315 316 317 314 314 318 317 314 313 312 312 311 312 312 312 313 313 313 313 312 312 312 312 312 312 314 319 319 310 305 305 306 306 305 305 305 304 303 303 302 301 300 300 299 298 298 298 298 298 297 297 297 296 296 295 295 295 295 295 295 294 294 294 293 292 291 290 290 290
317 319 316 314 316 316 316 315 315 315 316 317 317 317 317 317 316 315 315 316 313 313 318 317 314 312 311 312 312 312 312 312 313 313 314 314 314 313 313 313 313 313 315 320 322 314 306 304 304 304 303 304 304 303 302 302 301 300 300 299 299 298 298 297 297 297 297 297 296 296 296 295 295 295 295 294 294 294 294 293 293 292 291 290 290 290
315 318 319 317 316 316 317 316 316 316 315 316 317 317 316 316 317 314 315 318 316 316 316 314 314 314 313 313 313 313 312 312 313 313 313 313 314 314 314 314 314 314 315 319 321 315 308 306 303 302 302 302 302 302 302 301 301 300 300 299 299 298 298 297 297 297 296 296 295 295 295 294 294 294 294 294 293 293 293 293 292 292 291 290 290 290
312 315 319 319 319 319 318 317 318 318 315 315 317 318 317 316 317 316 317 318 320 322 318 315 317 316 317 317 314 314 314 313 313 312 313 313 313 313 314 313 314 316 318 318 317 313 309 306 302 300 301 301 301 301 302 302 301 300 300 299 299 298 298 297 297 296 296 296 295 294 294 293 293 293 293 293 293 293 293 292 292 291 291 290 289 289
313 314 316 318 321 322 320 320 322 321 316 315 320 324 320 318 318 319 321 321 325 328 320 318 321 319 317 318 316 317 318 317 317 315 314 313 313 313 314 314 314 318 322 320 314 310 308 306 303 300 299 299 300 300 301 301 301 300 300 299 299 298 297 297 296 296 296 295 295 295 294 293 293 292 292 293 292 292 292 292 291 291 290 289 289 289
315 314 318 319 319 321 320 318 321 322 317 316 325 330 324 322 323 322 322 324 327 325 318 320 322 319 317 317 318 319 319 319 318 317 316 315 315 314 314 315 315 318 324 323 315 310 307 306 304 301 298 298 300 300 300 300 300 300 300 299 299 298 297 297 296 296 296 295 295 294 294 293 293 293 293 292 292 292 292 291 291 291 290 289 289 288
320 318 322 322 319 320 319 318 320 321 318 318 322 325 323 322 323 321 319 322 325 320 317 320 319 318 318 315 316 316 315 316 315 315 316 315 316 315 313 315 314 317 322 322 316 311 308 305 302 300 299 299 299 300 300 300 300 300 299 299 298 297 297 296 296 296 296 295 295 294 294 293 293 293 293 292 292 292 292 291 291 291 290 289 288 288
320 319 320 323 321 319 321 325 326 322 320 319 319 322 325 326 323 319 316 318 322 320 319 321 318 317 318 315 316 315 314 315 314 313 314 314 315 315 313 315 313 315 321 321 315 310 307 303 301 300 299 298 298 299 299 299 299 299 298 298 297 297 297 296 296 296 295 295 294 294 294 293 293 293 292 292 292 292 291 291 291 290 289 289 289 288
314 313 315 321 320 320 323 321 318 318 318 317 318 320 327 331 326 324 322 318 318 319 319 321 319 316 318 318 317 315 316 317 315 314 314 313 314 315 313 315 314 314 321 322 315 310 306 301 300 300 298 297 297 298 298 298 298 298 298 298 297 297 296 296 296 295 295 295 294 294 294 293 293 293 292 292 291 291 291 291 291 290 289 289 289 289
313 312 315 320 319 320 321 315 314 318 316 316 322 322 323 330 328 325 324 319 317 318 319 320 319 317 317 317 316 315 316 316 315 315 318 316 315 315 314 314 314 315 321 322 316 312 309 304 301 298 296 296 296 296 297 297 297 297 297 297 297 296 296 296 295 295 295 294 294 294 294 294 293 293 293 292 292 291 291 291 290 289 289 289 289 289
316 315 314 317 317 318 319 317 320 321 316 316 322 321 320 324 323 321 322 323 321 320 319 318 317 316 315 316 316 316 318 317 315 315 319 320 318 317 317 317 316 320 325 324 318 314 310 307 305 300 295 294 295 295 296 296 296 297 296 297 296 296 296 295 295 295 295 294 294 294 294 294 293 293 293 292 292 291 291 290 290 289 290 289 289 288
323 321 315 314 315 317 318 317 318 320 317 315 318 320 320 320 319 320 325 326 321 321 321 316 316 317 316 318 318 315 316 318 316 315 317 319 319 319 322 324 323 326 326 320 318 314 309 307 305 299 294 294 294 294 295 296 296 296 296 296 296 296 296 295 295 294 294 294 294 294 294 293 293 293 293 292 292 292 291 290 290 290 290 290 289 289
323 320 317 316 319 318 315 314 317 321 318 314 316 319 318 323 326 323 325 324 319 326 326 315 318 322 317 319 321 315 314 316 315 316 316 316 316 317 324 329 328 328 324 317 317 314 309 306 302 297 294 294 294 294 294 295 295 295 295 295 295 295 295 295 295 294 294 294 294 293 293 293 293 293 293 292 292 292 291 291 291 290 290 290 290 289
318 319 319 316 319 318 314 314 316 321 320 315 318 317 314 322 325 319 321 321 317 324 324 316 322 326 317 314 318 315 315 316 315 315 314 314 315 315 322 332 331 327 322 318 317 315 310 305 298 294 294 294 293 294 294 294 294 294 295 295 295 295 295 295 294 294 294 294 293 293 293 293 292 292 292 292 292 292 291 291 291 291 290 290 290 289
316 320 321 314 314 315 314 315 315 319 320 316 317 317 314 319 320 316 323 324 316 318 319 317 321 321 316 315 315 314 314 315 314 314 313 313 315 314 319 328 329 327 324 320 317 314 311 307 299 294 294 294 293 294 294 294 294 294 294 294 294 294 294 294 294 294 294 293 293 292 292 292 292 292 292 292 291 291 291 291 291 291 290 290 289 288
318 318 319 316 317 314 311 314 315 316 318 317 318 317 315 319 320 321 325 325 320 318 318 317 317 315 315 317 318 316 315 315 316 316 315 314 314 314 315 322 327 326 319 313 311 311 309 308 302 295 293 294 294 294 294 294 294 294 294 294 294 294 294 294 294 294 293 293 292 292 292 292 292 292 292 291 291 291 291 291 290 290 290 289 288 288
321 316 318 319 319 315 311 313 316 313 312 317 320 318 317 320 322 322 322 322 320 318 318 317 316 315 314 314 315 315 315 316 317 316 315 313 313 313 314 320 325 320 314 312 312 311 309 308 303 296 294 295 294 294 294 294 293 293 294 294 294 294 294 293 293 293 293 293 292 292 291 291 291 291 291 291 291 291 291 291 290 290 289 289 288 288
318 317 319 318 314 315 313 314 319 317 312 314 316 316 316 318 322 323 320 320 320 318 317 317 317 315 315 315 315 315 316 316 315 314 314 312 312 313 314 319 322 322 322 321 316 311 308 306 302 296 295 296 295 295 294 293 293 293 293 293 293 293 293 293 293 293 292 292 292 292 291 291 291 291 291 290 290 290 290 290 290 289 289 288 288 287
316 317 317 315 312 314 314 314 319 319 316 315 316 316 315 313 318 321 318 318 319 316 316 316 316 315 315 318 316 314 318 319 318 318 316 313 313 314 315 317 322 326 329 326 320 314 309 304 300 296 296 297 296 295 294 293 293 293 292 292 292 292 292 292 292 292 292 292 292 291 291 290 290 290 290 290 290 290 290 289 289 289 288 288 287 287
317 318 317 316 314 314 314 315 317 319 318 317 316 316 316 314 316 317 316 317 317 315 315 315 316 315 314 316 314 312 318 321 320 319 318 317 316 317 319 323 326 328 328 328 325 317 309 305 302 296 295 296 295 294 294 293 293 292 292 292 292 292 292 292 292 292 292 292 291 291 291 290 290 289 289 289 289 289 289 289 289 288 288 288 287 286
318 318 317 317 317 318 318 315 314 316 316 315 315 316 316 313 314 316 316 316 315 315 315 315 316 316 313 314 314 312 315 318 319 317 317 318 318 319 325 329 327 324 324 325 322 314 308 306 302 297 294 294 294 294 294 293 292 292 292 292 292 292 292 292 292 292 291 291 291 291 290 290 289 289 289 289 288 288 288 288 288 288 288 287 286 286
317 317 315 316 319 322 322 316 313 313 312 313 315 316 315 314 314 315 314 313 314 315 315 316 316 316 314 314 315 313 313 315 319 318 317 318 320 323 327 330 329 326 324 320 315 310 307 304 302 300 298 295 293 293 293 293 292 292 292 292 291 292 292 292 292 291 291 291 290 290 290 289 289 288 288 288 288 287 287 287 287 287 287 286 286 285
316 317 316 317 319 320 320 317 314 312 311 314 316 314 315 315 314 314 313 313 314 315 315 316 316 316 315 315 314 313 312 313 315 315 315 317 321 324 326 327 327 327 325 320 316 313 311 308 307 305 302 296 293 293 293 293 292 292 292 292 291 292 292 291 291 291 291 290 290 289 289 289 288 288 287 287 287 287 286 286 286 286 286 286 285 285
318 317 316 317 318 319 318 317 318 318 314 313 315 314 314 314 314 314 314 315 316 316 316 316 316 315 314 313 313 312 312 312 312 312 313 314 316 318 319 320 320 319 319 319 317 315 314 313 311 306 302 297 293 293 293 292 292 292 291 292 291 291 291 291 291 291 290 290 289 289 288 288 287 287 287 286 286 286 285 285 285 285 285 285 284 284
315 315 316 316 316 318 317 316 319 320 316 313 315 315 313 314 314 313 314 315 316 316 316 316 315 315 314 313 313 312 311 312 311 311 312 312 312 313 313 313 315 314 314 312 311 312 312 313 310 305 302 298 294 294 294 293 292 292 291 291 291 291 291 291 291 290 290 289 289 288 288 288 287 286 286 286 285 285 284 284 284 284 284 284 284 283
313 314 316 315 315 316 317 316 316 316 315 315 316 315 314 314 314 314 314 314 315 316 316 316 315 315 315 313 312 313 312 312 312 311 311 311 311 312 311 312 314 313 310 309 310 312 313 312 308 305 303 299 295 294 293 293 292 292 291 291 291 291 290 290 290 290 289 289 288 288 288 287 287 286 286 285 284 284 283 283 283 283 283 283 283 283
314 315 316 315 315 315 315 315 316 315 315 315 315 315 315 314 314 314 313 313 313 315 315 314 314 315 315 313 312 313 312 312 312 312 312 311 311 311 310 311 312 310 308 309 312 314 313 311 309 307 305 302 297 294 292 292 292 291 291 291 291 291 290 290 290 289 289 288 288 288 288 287 286 286 285 284 283 283 282 282 282 282 282 282 282 282
314 314 315 315 315 315 314 314 314 315 315 315 315 315 314 314 314 314 314 313 313 313 313 313 314 314 313 312 312 312 312 312 312 311 311 310 310 310 309 310 310 308 308 309 311 312 312 310 309 308 306 303 300 296 292 291 291 291 291 291 290 290 290 290 289 289 288 288 288 288 287 286 286 285 284 283 283 282 282 281 281 281 281 281 281 281
313 314 315 315 314 314 314 314 314 314 315 315 315 314 314 314 314 314 314 314 313 314 313 313 313 313 312 311 311 311 311 311 311 311 310 310 309 309 309 309 309 308 308 309 309 308 308 308 307 306 305 303 301 297 293 292 292 292 291 291 290 290 290 289 289 288 288 288 288 287 286 286 285 284 283 283 282 282 281 281 281 280 280 280 280 280
312 313 314 315 315 315 314 314 314 314 314 314 315 314 314 314 314 314 314 314 314 314 314 314 314 313 312 311 311 311 311 311 311 310 310 310 310 310 309 309 309 309 309 309 309 307 306 306 306 306 305 305 301 296 294 294 293 292 291 291 291 290 289 289 289 288 288 288 287 287 286 285 284 283 283 282 281 281 280 280 280 280 279 279 279 279
311 312 314 315 316 316 316 315 314 314 315 315 315 314 314 314 314 314 314 314 313 314 314 314 314 313 312 312 311 311 310 310 310 310 310 310 309 309 309 309 309 309 309 309 308 308 307 307 306 305 306 305 301 298 298 297 295 294 294 293 292 290 289 288 288 288 287 287 286 286 285 284 283 282 282 281 281 280 280 279 279 279 279 278 278 278
311 312 313 314 316 316 316 316 316 316 316 317 317 316 314 314 314 314 315 314 313 313 313 313 313 312 312 312 311 311 311 310 310 310 310 309 309 310 309 308 308 309 308 308 309 308 308 307 306 305 304 301 300 301 301 300 298 298 297 294 291 290 289 288 288 287 287 286 286 285 285 284 283 282 281 281 280 279 279 278 278 278 278 277 277 276
312 312 312 313 314 315 315 316 317 318 317 316 317 315 313 312 314 314 314 314 312 313 312 312 312 312 311 311 311 311 311 310 310 310 309 309 310 310 310 308 308 308 307 308 308 308 308 307 307 307 304 301 301 301 300 300 299 298 296 293 291 290 289 288 287 287 286 286 285 284 284 283 282 281 281 280 279 279 278 278 278 277 277 276 276 275
313 312 312 313 313 314 315 315 316 317 316 315 315 314 312 312 313 313 313 313 312 312 312 311 312 311 310 311 311 310 310 310 310 310 309 308 307 307 306 305 305 305 305 305 306 307 307 306 305 305 303 301 301 301 300 300 300 297 294 292 291 289 288 287 287 286 285 285 284 284 283 283 282 281 280 279 278 278 277 277 277 276 276 275 275 275
311 312 313 313 314 315 314 314 315 315 315 314 315 315 312 312 312 313 314 313 310 309 309 309 309 310 309 309 308 308 309 309 309 310 307 304 303 303 302 303 303 302 302 302 302 302 302 302 301 301 301 301 301 301 301 301 299 295 292 291 289 288 287 287 286 286 285 285 284 284 283 282 281 280 279 278 277 277 277 276 276 275 275 274 274 273
310 312 313 314 315 314 314 314 314 314 315 314 315 315 312 311 312 311 314 314 307 303 303 304 304 304 304 303 303 305 307 310 310 309 305 302 302 302 302 302 302 301 301 301 301 300 298 298 299 299 300 300 300 300 300 299 297 294 291 289 288 287 286 286 286 286 285 285 284 283 283 282 281 280 279 278 277 277 276 276 275 275 274 274 273 273
309 310 310 312 314 314 315 316 314 315 315 312 311 311 309 310 311 311 315 313 302 299 302 302 301 301 300 300 301 302 305 309 308 305 302 301 301 301 301 301 300 300 300 299 300 299 297 297 297 298 298 297 296 297 297 295 294 292 289 288 287 286 285 285 286 286 285 285 284 283 282 281 281 280 279 277 277 276 276 275 275 274 274 274 273 273
308 309 309 311 312 312 314 314 314 315 312 304 302 303 303 307 311 314 316 309 298 298 302 301 300 300 299 298 299 299 300 302 302 300 300 300 300 299 298 298 298 299 299 298 298 298 298 297 297 297 295 294 295 295 295 293 292 290 288 287 286 285 286 286 286 286 285 284 284 282 282 281 280 279 278 277 277 276 275 275 274 273 273 273 273 273
302 303 305 310 311 311 313 313 313 313 307 299 300 302 301 306 313 314 308 300 295 298 301 300 299 298 297 297 297 296 297 298 298 298 298 298 297 296 295 296 296 296 297 297 297 298 298 298 297 297 296 295 295 295 294 292 290 289 288 286 285 285 286 286 286 286 285 284 283 282 281 280 280 279 278 277 276 275 274 274 273 273 273 272 272 272
298 299 303 306 306 307 308 310 312 312 305 299 299 300 300 303 307 304 299 295 295 297 299 298 297 296 295 296 295 295 295 296 296 296 296 296 295 295 294 295 294 294 295 295 297 297 297 297 297 298 298 297 295 295 294 292 290 288 287 285 285 286 286 286 286 285 284 283 282 281 281 280 279 278 277 276 276 275 274 273 273 272 272 272 272 272
296 297 299 299 301 302 304 307 311 310 303 299 298 298 297 298 298 296 295 295 296 296 296 296 295 294 294 295 294 294 295 294 294 294 294 294 294 294 294 294 294 295 295 295 296 296 296 296 296 296 298 298 295 294 293 291 289 288 286 285 286 287 286 286 285 285 284 283 281 280 280 279 278 277 276 276 275 274 273 272 272 272 272 272 271 271
295 296 297 298 301 302 300 302 304 302 299 299 298 296 295 295 295 296 296 297 296 296 295 294 293 293 294 293 292 293 293 293 293 293 293 293 294 294 294 294 295 296 296 295 296 296 295 295 295 296 297 298 296 294 293 292 290 288 286 287 288 287 286 285 285 284 283 281 280 279 279 278 277 276 276 275 274 273 272 272 271 271 271 271 271 270
296 296 297 298 298 298 297 297 298 297 296 298 297 294 293 293 295 297 298 297 296 295 294 294 293 292 293 292 292 293 293 293 293 293 293 293 294 294 294 295 295 296 296 295 295 295 295 295 295 295 295 295 295 294 293 293 291 289 288 291 290 288 286 285 284 283 281 280 279 278 277 277 276 275 274 274 274 273 272 271 271 270 270 270 270 270
294 294 294 294 294 294 294 294 294 294 293 293 293 292 293 295 298 300 300 298 295 294 293 293 292 292 292 292 292 292 292 293 293 292 292 292 292 293 293 294 294 295 295 294 294 294 295 295 295 294 293 294 294 293 292 292 292 290 292 294 292 289 287 285 283 281 280 279 278 277 276 275 275 274 273 273 273 273 272 271 270 270 270 270 270 270
292 292 292 292 292 291 290 291 292 292 291 291 291 292 294 297 298 297 296 294 293 291 291 291 291 290 290 291 291 291 291 291 291 290 290 290 291 291 291 292 292 293 293 293 293 293 293 294 295 295 295 295 294 293 293 292 292 292 293 294 292 289 286 284 282 280 279 278 277 276 275 275 274 273 272 272 272 272 271 271 271 270 269 269 269 269
291 292 290 289 289 289 289 290 290 290 291 291 290 289 291 292 292 291 291 290 289 289 288 288 288 288 288 289 289 290 290 289 289 289 289 289 289 290 290 290 291 291 291 292 292 292 293 294 295 296 296 295 294 294 293 292 292 293 293 291 290 288 285 283 281 279 278 277 276 274 274 274 273 272 271 271 271 271 270 270 270 270 270 270 270 270
291 290 289 289 289 289 289 289 289 289 289 289 289 289 289 289 289 288 287 287 286 286 286 286 287 287 287 287 287 287 287 287 287 287 288 288 288 288 288 289 289 290 290 291 291 292 292 293 294 294 294 294 294 294 293 293 293 293 292 290 288 286 283 281 280 279 277 276 274 273 273 273 272 272 271 271 270 270 270 270 270 270 270 271 272 273
290 289 289 289 289 289 288 288 289 289 288 288 288 289 289 288 286 284 284 284 284 284 284 284 285 285 285 285 285 285 285 285 285 285 285 285 285 286 286 287 287 288 288 289 289 290 290 291 292 292 292 293 293 293 293 293 293 292 291 289 287 285 283 280 279 277 276 275 273 272 272 271 271 271 271 270 270 269 269 269 270 270 270 271 272 272
290 289 289 289 289 288 288 288 289 289 288 288 289 288 287 286 283 282 282 282 282 282 283 282 282 282 282 282 282 282 282 282 282 282 282 283 283 283 284 284 284 284 285 286 286 287 288 289 290 291 292 292 293 293 292 292 292 291 290 288 286 284 282 280 278 276 275 274 273 272 271 271 271 270 270 270 269 269 269 269 270 270 271 271 271 272
Wind_Speed
5 4 4 6 11 12 9 10 14 14 9 9 9 8 9 8 10 13 11 7 8 6 8 12 14 16 18 19 17 14 10 10 12 11 11 12 12 12 14 16 14 14 16 12 10 19 27 31 32 33 33 33 34 35 37 39 39 40 41 41 41 41 42 42 41 40 40 38 36 35 35 34 33 32 31 30 29 29 28 27 25 24 23 21 20 18
4 6 8 13 16 11 7 10 13 12 10 11 9 9 10 7 11 14 10 7 6 5 8 11 13 16 17 18 15 10 8 11 14 13 13 14 13 13 15 18 16 14 12 8 7 14 21 25 28 30 31 33 34 35 38 40 41 41 42 43 43 43 43 44 44 43 42 42 40 39 38 37 35 35 34 33 31 30 29 28 26 24 23 22 21 19
3 7 12 15 12 8 7 9 9 10 10 9 7 8 8 6 10 12 9 6 4 5 7 10 11 13 15 17 14 11 11 12 14 15 15 15 13 14 16 17 16 14 11 9 6 7 14 21 25 28 30 34 36 36 38 40 40 41 42 43 43 44 45 44 45 44 43 41 39 37 36 36 35 34 34 33 32 31 29 28 27 25 24 23 21 20
5 7 13 14 9 9 12 10 8 8 7 8 8 8 8 7 8 10 6 3 3 4 5 7 8 9 10 13 14 14 14 13 15 16 16 15 13 16 19 16 15 15 11 9 7 6 10 15 20 25 28 32 33 35 37 38 40 41 42 43 43 44 45 44 44 43 41 39 37 34 32 34 32 31 32 30 29 30 29 28 27 26 25 24 23 22
11 8 8 11 11 12 14 11 8 6 8 11 11 9 10 10 11 12 7 3 3 4 4 5 9 9 9 14 16 13 12 13 14 15 16 15 14 15 18 16 15 15 11 9 9 8 8 11 18 24 27 30 32 35 38 40 42 42 42 43 43 44 44 44 44 42 40 37 35 30 27 28 27 27 29 29 29 31 30 31 31 29 28 27 25 24
13 8 6 8 10 12 12 10 7 7 9 12 10 12 15 14 13 13 8 6 5 6 3 2 7 8 8 13 15 9 7 10 10 12 15 16 13 13 16 15 13 12 9 10 10 10 10 10 14 20 24 28 31 35 39 41 42 42 42 43 43 43 43 43 43 42 41 39 37 34 32 31 29 27 32 35 36 36 36 35 34 31 30 28 27 25
7 8 9 10 11 11 10 7 7 11 9 11 6 11 14 12 10 10 6 3 4 6 4 3 2 9 5 7 10 7 7 11 9 10 13 13 11 12 13 14 11 8 8 9 8 9 10 10 12 16 23 29 31 34 38 40 41 41 42 43 43 43 43 43 43 43 42 41 40 40 39 38 35 33 36 39 39 39 38 37 35 32 31 29 28 26
5 6 8 13 11 9 8 8 9 11 8 8 3 8 9 8 8 7 4 5 4 4 5 2 3 7 11 6 10 11 11 11 11 10 11 11 12 13 13 13 12 9 8 9 8 9 11 12 13 17 24 30 32 34 36 38 40 41 41 43 43 43 42 42 43 43 44 43 42 41 39 38 38 38 37 37 37 37 37 36 35 33 31 30 28 27
3 5 8 11 9 7 8 8 8 11 8 6 2 5 6 5 5 2 3 4 1 4 6 4 6 4 13 8 9 11 11 10 12 12 13 14 14 15 13 14 14 10 9 9 10 12 12 12 16 21 25 30 32 33 36 39 41 41 40 41 41 41 41 41 43 44 45 44 43 42 39 37 37 36 34 34 35 36 36 35 35 33 32 31 29 27
1 4 7 7 6 8 6 3 6 10 8 4 4 3 4 3 2 4 1 1 3 5 7 5 7 3 14 8 6 6 7 9 11 11 13 14 14 14 12 13 14 10 7 9 10 11 12 14 19 21 22 26 29 32 35 37 38 39 39 39 40 41 41 41 43 45 45 45 43 42 41 39 36 34 32 32 33 35 35 35 35 35 33 32 30 28
3 1 2 4 4 5 4 3 2 4 4 2 5 5 6 5 5 4 1 4 2 8 6 9 12 8 9 6 6 5 6 10 10 8 10 11 11 13 11 10 12 10 7 7 8 8 9 11 16 18 20 24 27 28 31 33 35 37 38 38 40 40 41 41 43 45 46 45 45 44 43 41 39 36 34 33 34 35 36 36 36 35 34 33 31 29
6 2 2 3 2 4 6 3 3 4 2 4 4 4 3 5 4 5 4 5 2 9 5 12 14 12 10 6 3 4 5 9 10 8 10 11 12 12 10 9 10 9 7 7 7 7 7 8 11 14 17 21 24 27 29 32 34 36 37 38 39 39 41 42 43 45 46 46 46 46 45 44 42 40 39 38 38 38 38 38 36 35 34 34 32 30
6 8 7 2 1 5 5 2 4 6 3 4 5 5 1 4 3 3 3 0 4 8 5 10 9 8 12 7 2 6 7 7 9 9 11 12 12 11 11 11 9 6 6 7 7 7 8 8 9 11 15 20 24 28 31 32 34 36 37 38 39 40 42 42 43 45 46 46 47 47 47 46 45 43 43 42 41 41 41 40 39 38 38 37 35 33
4 7 5 3 3 5 9 6 3 3 3 6 6 6 5 3 1 2 4 3 5 7 5 5 6 5 9 4 8 13 12 11 10 10 12 12 12 12 11 9 6 6 7 7 7 7 8 9 9 10 15 20 23 28 31 33 36 36 36 38 39 40 41 42 43 45 46 47 48 48 48 47 46 45 45 44 43 43 42 42 42 42 42 41 39 38
4 9 5 9 4 7 13 13 11 5 4 6 5 6 5 5 4 4 5 6 5 6 5 3 5 4 5 3 9 13 12 9 9 11 12 10 10 10 6 3 3 6 6 6 7 8 8 9 9 10 15 20 24 28 31 33 35 35 36 39 41 40 41 43 44 45 46 48 48 47 47 47 47 46 45 44 43 43 43 43 43 43 42 42 40 38
5 11 7 7 2 9 12 11 9 6 1 4 4 4 4 5 6 5 6 6 2 3 6 3 5 6 4 5 8 8 9 8 9 11 9 9 11 9 6 5 6 6 6 6 7 8 8 8 8 11 15 20 23 26 30 33 35 37 39 41 42 43 43 44 45 46 48 47 46 46 47 46 46 45 45 45 44 44 44 44 44 43 42 41 39 37
5 7 3 2 1 4 7 4 4 5 3 2 4 4 5 3 6 5 6 3 1 3 7 4 5 6 5 8 8 6 8 8 7 8 8 10 11 11 10 7 7 7 7 7 7 8 8 8 8 12 16 19 23 27 33 36 39 42 42 41 42 42 40 42 46 47 47 46 45 45 46 46 46 45 46 47 46 45 44 43 43 43 41 40 38 36
6 6 4 5 2 4 4 3 0 2 5 6 3 6 2 3 2 3 2 3 1 6 7 6 10 8 6 8 4 3 2 6 7 9 10 11 12 13 11 7 7 8 7 6 7 7 8 8 9 12 18 23 27 31 35 37 39 39 39 40 41 41 42 45 46 45 44 44 44 45 46 47 47 47 46 45 45 45 44 43 43 42 41 40 38 36
5 6 6 5 5 3 1 3 2 3 4 6 3 3 3 1 2 2 3 3 5 8 7 10 13 9 7 9 5 3 5 8 10 11 11 12 12 13 11 7 8 7 5 6 8 7 8 9 9 12 18 24 28 30 32 33 33 35 38 40 40 41 43 42 40 41 42 43 44 44 44 45 45 45 43 42 43 44 45 45 44 42 41 39 38 36
3 5 6 2 2 1 1 1 4 2 1 1 1 2 1 3 4 4 4 3 5 9 8 10 12 9 9 7 4 8 9 9 10 9 9 12 12 12 10 9 8 7 7 8 8 8 9 10 11 16 21 25 28 31 30 29 31 35 37 37 38 40 39 38 39 42 42 43 43 42 41 42 42 42 42 41 42 44 45 46 45 43 41 40 39 37
3 5 8 2 2 1 2 4 7 7 5 3 2 4 3 2 2 1 2 2 4 7 7 8 9 10 9 3 3 6 7 8 9 9 9 11 11 11 10 9 8 7 8 8 8 9 10 10 11 17 22 24 24 25 26 30 33 35 35 36 38 38 37 38 41 42 43 43 42 41 40 40 40 40 40 41 42 43 43 44 45 44 42 41 40 39
1 4 6 1 0 4 5 5 9 11 9 7 6 7 6 5 3 3 6 5 4 5 5 7 8 11 10 1 4 2 4 6 9 9 9 11 12 11 9 8 9 8 8 8 8 9 9 9 10 14 18 19 20 23 28 31 32 32 35 39 39 38 38 40 42 43 44 42 40 40 40 39 38 39 39 40 41 41 42 42 44 44 44 43 42 41
0 1 5 4 4 7 7 4 7 10 8 5 4 5 4 4 4 6 8 5 4 5 4 7 9 9 12 10 5 5 4 5 8 8 8 10 11 9 8 8 8 8 8 8 8 8 8 9 9 10 14 17 20 25 27 29 31 34 38 39 37 38 42 44 44 42 41 39 39 41 40 38 37 38 38 38 39 40 41 42 42 44 44 44 42 41
2 0 3 5 4 5 5 3 2 3 3 2 2 4 4 4 5 7 7 4 6 7 5 8 9 7 12 14 10 11 10 6 7 8 9 10 8 6 7 7 7 8 9 8 8 7 7 7 6 7 9 12 18 22 25 29 32 34 35 35 36 40 44 44 41 39 38 39 40 40 39 39 38 38 38 39 38 38 39 40 41 42 43 43 42 41
3 1 2 2 4 5 5 4 3 2 2 2 3 5 6 8 9 7 5 4 6 10 10 11 9 7 12 16 13 15 15 10 7 8 8 8 6 6 7 7 7 8 9 9 8 7 7 6 7 8 9 10 15 21 25 28 31 32 34 35 37 41 42 41 39 38 39 39 38 37 38 39 38 39 39 39 38 37 37 38 40 41 42 42 42 41
1 2 1 1 4 6 6 6 6 3 2 1 3 8 11 14 15 11 7 6 9 12 13 12 10 11 15 19 20 21 20 16 14 12 10 8 7 8 8 8 8 8 8 10 10 8 8 7 9 10 9 10 15 20 23 26 29 31 33 35 38 40 39 38 39 39 39 38 37 37 37 37 38 39 39 39 38 38 38 38 39 41 41 42 42 41
2 4 7 10 10 10 10 11 9 4 4 6 8 12 14 15 16 13 9 10 11 11 12 13 15 17 17 18 22 24 24 23 22 18 14 11 11 11 10 8 8 8 9 10 8 7 8 10 11 12 10 11 15 20 23 25 28 30 31 34 38 38 36 37 38 38 38 38 37 37 37 38 39 40 40 40 39 38 38 38 39 40 41 41 41 41
3 6 12 17 19 18 18 20 19 15 14 16 16 16 15 14 14 13 12 14 13 11 13 15 18 20 18 17 23 26 26 26 24 20 15 12 12 12 9 8 9 10 10 7 6 8 11 12 13 12 11 11 14 19 22 24 27 30 31 34 35 36 36 36 37 37 37 37 37 38 39 40 39 39 40 40 38 38 38 39 39 40 40 40 40 40
4 7 12 17 21 23 23 25 25 22 21 20 19 19 20 19 17 16 17 19 16 14 16 15 17 20 17 17 22 25 26 27 24 20 17 13 12 10 8 8 10 13 12 8 8 11 12 13 13 12 12 12 12 15 18 22 26 27 30 32 33 35 36 36 36 36 36 36 38 39 39 38 38 38 39 39 38 39 39 40 40 41 41 40 40 39
4 6 11 16 19 20 22 24 25 25 23 22 21 21 22 22 22 22 21 21 21 21 20 19 22 23 17 16 21 23 24 22 19 19 19 17 18 15 11 10 11 15 14 9 10 12 12 13 14 13 12 11 11 13 16 20 24 27 31 32 32 33 35 35 35 36 36 37 38 37 36 36 37 38 39 39 40 40 41 41 41 42 41 41 40 39
6 8 11 13 14 14 18 21 22 24 23 24 24 23 22 23 24 24 22 20 19 21 23 24 24 21 17 19 23 24 23 20 18 22 23 22 24 20 13 10 13 15 14 11 11 12 12 12 13 12 11 12 13 15 17 22 26 28 30 29 30 33 34 35 35 35 36 36 36 34 35 36 38 38 40 40 41 41 42 42 42 42 42 41 40 39
6 7 7 8 9 9 14 19 22 24 25 25 24 23 24 24 23 22 21 19 19 21 24 23 19 16 17 21 23 24 25 24 23 24 24 24 25 20 13 13 16 16 14 12 13 12 11 12 13 12 12 13 14 16 20 24 25 25 26 29 32 32 32 34 35 34 35 34 34 35 37 38 39 39 40 40 41 41 42 42 42 42 41 41 40 38
6 6 5 7 9 8 13 20 21 20 18 16 17 24 29 27 24 22 20 21 22 21 18 17 16 17 19 20 20 21 23 24 24 23 22 22 21 18 14 14 16 16 14 14 14 13 12 12 11 12 13 14 16 20 27 29 26 26 31 33 32 30 32 34 34 34 33 33 35 37 38 39 39 39 40 40 41 41 41 42 42 42 42 41 39 38
5 8 8 7 8 9 13 15 13 12 11 8 10 20 27 27 26 25 23 25 26 22 18 18 20 21 20 18 18 20 21 21 21 19 16 14 13 13 14 14 16 17 16 14 13 13 13 11 10 11 14 17 23 28 31 30 29 31 33 30 28 30 32 33 33 33 33 33 36 37 38 39 39 39 39 40 41 41 42 43 43 42 41 40 39 37
8 9 8 5 5 5 5 6 8 8 7 5 7 15 21 25 28 28 26 27 26 24 24 25 24 22 21 20 18 18 18 18 16 15 13 10 8 8 12 16 17 19 18 15 14 15 13 10 10 11 13 20 28 30 27 27 30 31 27 25 27 30 32 33 32 32 32 34 35 37 38 39 39 39 39 40 41 42 42 42 42 41 40 40 39 38
11 9 6 5 5 4 3 6 10 9 4 1 4 8 13 17 19 20 22 24 25 25 25 26 25 22 21 21 18 16 17 15 13 12 9 8 8 9 10 13 15 17 17 16 16 15 13 12 12 14 17 23 26 24 24 27 30 27 24 25 28 30 31 31 30 30 32 34 35 38 39 40 40 39 39 41 41 42 42 42 42 41 41 39 38 37
15 12 9 9 9 8 10 12 12 14 11 6 6 8 12 14 14 15 17 17 13 12 14 14 15 16 14 13 13 13 13 11 10 7 6 11 12 11 10 10 12 14 14 14 14 15 16 17 16 17 20 22 22 23 26 28 25 23 22 23 25 27 28 28 29 31 33 35 37 39 40 41 41 40 40 41 42 42 42 42 42 42 42 40 38 36
15 13 12 11 8 9 15 15 12 15 15 10 10 12 15 19 20 18 17 9 6 15 15 13 13 14 14 14 16 14 9 5 5 3 8 13 12 11 12 11 11 13 13 13 14 15 19 22 22 21 20 19 20 22 23 21 19 20 20 20 22 24 25 25 28 31 34 36 38 40 41 41 42 41 41 42 43 43 42 42 42 42 42 42 40 38
12 12 11 10 7 9 14 13 11 12 8 5 7 7 8 13 12 10 12 6 9 16 13 13 15 13 13 14 14 13 8 4 4 5 9 13 12 11 12 13 13 14 14 15 15 14 17 22 24 22 17 13 14 15 13 11 15 17 16 17 21 21 21 24 30 33 35 36 37 39 40 41 41 41 42 43 43 42 42 41 41 41 40 40 40 39
7 6 7 7 8 12 14 11 9 7 1 8 12 13 14 11 2 0 5 4 11 14 9 9 10 10 12 12 11 10 8 5 6 10 12 14 13 12 12 12 13 14 14 16 19 20 20 22 20 16 13 12 12 11 7 7 11 12 13 15 17 18 22 29 31 30 30 30 32 35 38 40 41 42 42 42 41 40 40 40 39 40 39 38 38 37
4 4 6 7 9 14 16 14 10 5 2 7 11 13 15 11 0 3 2 5 12 15 9 7 9 9 11 10 8 7 7 6 7 11 13 14 14 15 14 12 13 15 14 15 19 21 22 21 17 13 12 11 10 8 5 8 11 10 11 12 14 20 27 28 27 26 26 28 30 34 36 38 40 41 40 40 38 37 37 38 38 39 39 37 36 36
3 4 5 6 7 10 10 11 11 5 4 10 12 11 12 8 3 3 6 8 11 13 10 10 10 10 10 8 6 7 9 9 10 12 13 14 15 16 16 14 14 16 17 18 19 20 19 18 17 16 15 12 8 6 6 10 12 10 9 10 15 21 21 18 19 23 27 29 31 33 35 36 37 38 37 37 38 38 36 35 36 38 38 37 36 35
4 6 7 6 6 7 8 8 7 4 5 13 14 10 9 5 5 7 9 9 8 8 10 11 11 10 10 11 11 11 10 11 12 12 13 15 15 14 15 14 13 13 15 16 19 21 19 16 15 17 19 15 9 6 7 11 12 10 10 13 18 17 14 14 19 22 25 28 30 32 34 35 35 37 37 38 40 40 37 35 35 36 37 37 36 34
4 5 6 5 4 3 4 4 5 6 7 9 8 6 7 6 6 6 6 7 6 6 6 7 9 10 10 11 13 13 12 13 13 13 13 14 13 13 14 14 14 13 12 13 16 20 19 15 15 19 22 19 13 9 9 12 13 10 11 16 18 16 15 18 20 22 25 27 28 30 32 33 35 36 38 39 40 39 37 36 36 35 35 35 34 32
3 4 5 5 4 4 4 6 10 11 8 3 2 6 10 9 4 4 5 4 4 5 4 5 8 10 9 10 12 13 13 14 14 14 13 13 14 14 14 14 14 13 13 14 17 20 19 17 17 19 21 22 18 13 12 13 13 12 12 16 18 17 18 21 23 25 27 28 29 30 31 31 33 35 36 39 41 40 38 37 36 35 35 34 34 31
5 7 7 5 6 8 8 9 11 11 11 12 9 7 7 6 4 4 5 4 4 5 4 4 7 9 9 10 11 11 12 14 15 15 14 14 15 15 14 15 15 13 13 14 17 21 22 20 20 17 16 21 22 18 15 17 17 16 16 17 18 19 22 24 26 27 28 28 29 30 31 31 31 32 34 36 39 39 40 41 40 38 36 35 33 31
5 6 6 6 8 10 10 9 9 11 15 17 13 7 3 4 1 1 1 2 3 4 5 6 7 9 10 9 10 12 13 14 15 16 16 15 15 15 15 15 15 15 15 16 20 24 22 18 17 15 13 17 21 20 19 20 22 24 23 19 18 22 24 26 28 27 28 29 29 30 32 33 32 32 33 34 35 35 37 40 41 41 42 41 37 33
4 4 5 7 9 9 10 11 13 15 15 13 11 8 4 1 2 3 2 2 3 4 5 6 8 9 10 10 10 12 14 15 15 16 16 15 14 14 15 16 16 17 18 20 23 24 20 15 15 16 15 17 21 23 22 24 26 28 28 24 22 24 26 28 29 28 28 30 30 31 33 34 34 34 33 34 34 34 35 37 38 42 49 50 47 42
5 5 6 8 9 10 10 11 12 14 13 11 10 8 5 4 3 3 3 4 5 6 7 8 8 9 10 12 12 12 14 15 15 14 15 15 16 15 15 16 17 17 18 20 23 23 20 17 17 17 16 20 25 24 23 26 29 30 29 27 25 26 27 28 27 26 27 29 30 30 31 32 33 34 33 32 32 32 34 36 35 38 44 45 44 45
5 7 8 7 7 8 10 9 8 8 9 12 10 5 5 6 7 7 7 8 9 9 10 10 11 11 10 11 12 12 13 14 14 15 15 15 16 17 17 18 17 16 18 22 24 25 24 23 23 21 21 25 28 26 24 27 30 30 29 28 27 28 29 28 25 24 25 26 27 28 30 29 30 31 31 31 31 29 29 30 31 33 37 36 36 38
7 9 9 7 8 10 12 11 6 4 8 11 8 4 4 4 7 7 9 9 9 9 9 10 11 12 11 11 11 12 13 15 16 16 15 14 16 17 17 19 18 17 20 22 22 21 22 25 25 23 22 25 27 26 25 27 29 28 27 27 28 30 31 29 25 21 22 25 26 28 30 29 28 29 29 28 29 28 26 24 23 25 28 29 28 28
Wind_Direction
159 174 172 193 224 227 208 198 217 234 242 252 257 261 256 255 264 260 265 248 186 199 228 224 236 241 248 255 252 255 263 262 258 248 241 244 247 250 251 253 252 248 254 261 237 220 218 216 209 203 201 198 196 195 194 192 191 191 188 188 189 190 190 190 189 189 189 189 189 190 192 194 194 195 196 198 202 205 208 208 206 202 200 199 197 196
162 189 208 214 226 230 203 200 220 232 239 250 253 261 261 248 261 261 258 257 198 200 248 237 243 250 249 255 256 252 252 255 254 248 246 244 243 249 253 255 256 252 260 275 249 219 213 208 200 195 193 191 189 190 191 190 190 190 189 190 190 189 190 191 191 191 192 193 193 192 194 194 193 194 196 198 201 204 206 207 208 206 204 204 201 199
212 220 225 222 231 245 232 215 216 228 234 243 246 256 263 250 267 268 250 255 211 190 252 250 247 253 253 257 259 249 239 244 248 246 248 248 246 253 253 253 256 257 262 267 251 214 203 196 188 187 189 190 190 188 189 190 189 188 189 191 191 190 191 192 193 194 194 195 196 197 197 195 193 194 198 200 200 202 204 207 208 208 208 208 205 202
226 231 226 221 224 237 245 239 224 243 248 239 239 249 258 250 263 267 249 250 220 207 254 264 260 257 258 266 260 247 241 242 248 248 251 252 247 251 253 254 259 259 253 245 238 212 194 184 181 185 187 188 187 185 186 187 187 188 190 191 191 192 192 193 194 195 196 195 196 198 199 197 195 194 197 199 199 201 203 204 206 208 210 211 209 207
236 227 207 205 211 223 241 244 222 239 259 244 233 234 249 248 242 252 271 322 288 276 287 287 286 268 235 250 256 248 241 242 248 251 255 256 247 251 258 256 255 256 243 225 225 209 187 181 185 188 187 185 184 185 186 187 189 190 191 192 193 193 194 194 195 195 195 193 192 192 191 191 192 191 192 193 195 198 202 205 207 209 210 211 211 209
246 228 179 191 211 218 232 242 208 198 249 258 230 214 236 246 245 255 290 335 315 294 285 227 284 276 208 224 248 252 240 240 241 239 246 252 248 250 259 258 250 245 233 221 217 199 190 189 187 187 186 185 185 188 189 190 191 191 192 193 194 194 195 196 195 195 194 193 191 188 185 184 184 185 190 194 195 197 201 206 208 208 209 210 210 210
241 219 191 204 217 213 222 244 212 190 233 269 227 199 224 241 254 263 278 299 265 266 269 135 255 282 252 214 234 234 227 236 235 232 238 245 246 242 248 256 250 230 217 223 217 194 189 188 184 188 190 188 189 190 191 191 192 192 193 194 195 195 196 196 196 195 195 193 193 193 191 190 188 188 195 200 200 200 203 205 207 207 208 210 210 211
212 201 199 213 218 209 216 240 216 184 213 266 220 183 205 227 248 250 224 223 233 272 283 162 135 282 281 237 206 206 210 229 238 238 242 240 241 242 242 252 251 224 205 210 207 196 193 191 190 193 194 192 192 191 191 191 192 194 195 195 196 197 197 197 196 196 196 196 196 196 196 196 196 197 199 200 201 203 203 204 206 206 207 209 210 212
168 185 206 206 206 208 216 228 195 167 205 254 155 165 170 188 219 161 166 228 299 334 281 207 135 264 279 250 191 203 205 221 236 234 239 238 236 241 238 246 253 235 206 203 200 198 196 195 197 196 194 194 193 192 192 193 194 195 196 196 196 197 198 198 198 197 199 199 198 197 197 199 201 203 202 200 200 202 202 202 204 204 206 207 209 211
121 203 205 171 181 215 213 205 166 169 214 227 116 102 69 71 64 77 165 198 44 305 259 193 147 225 277 261 173 191 202 215 234 230 233 235 236 243 236 238 252 246 215 208 205 199 196 197 199 196 192 192 194 194 194 194 194 195 196 196 196 198 199 199 199 199 199 200 199 199 199 200 200 201 201 199 198 200 200 200 201 202 203 205 206 208
250 286 209 166 189 201 146 94 130 171 205 132 94 56 27 10 27 53 354 76 58 276 238 175 175 193 270 277 149 172 200 199 211 224 239 244 243 250 245 234 243 241 219 207 204 197 192 192 192 189 188 190 194 195 195 194 195 196 196 196 198 199 200 200 200 200 201 201 201 201 201 201 200 198 197 196 196 197 197 197 198 200 202 203 205 204
258 257 228 230 184 123 99 83 349 8 62 92 94 74 20 328 11 28 356 59 209 264 216 179 183 184 232 263 153 224 242 200 198 203 225 238 240 247 250 238 236 233 207 189 190 184 170 168 177 184 187 188 191 194 195 196 196 197 198 198 199 201 201 202 201 202 202 202 203 203 202 202 201 200 199 198 197 196 196 196 196 197 199 201 202 203
267 234 213 232 195 151 131 107 344 349 30 103 108 104 66 296 342 353 316 88 221 255 225 188 179 199 240 250 218 273 281 228 210 205 212 224 230 239 249 246 235 215 190 179 178 178 171 174 179 184 186 186 190 194 195 197 197 198 199 199 200 203 203 203 203 204 204 205 205 205 204 203 203 202 202 201 200 199 197 196 195 194 196 196 198 201
287 268 200 156 275 184 155 174 237 275 185 159 148 145 168 214 241 261 261 259 256 262 250 185 166 237 278 272 208 228 237 221 209 212 218 219 220 226 240 249 233 198 188 180 176 179 182 187 188 188 188 188 192 195 196 197 199 199 200 201 203 206 205 204 205 205 206 208 208 207 206 205 203 203 204 203 202 201 199 198 197 196 196 197 199 201
252 286 195 160 225 184 174 202 208 168 158 182 159 148 178 184 175 204 236 248 267 286 280 181 164 234 294 276 212 217 234 231 211 217 223 224 229 234 245 247 197 192 194 183 183 191 194 193 191 191 192 193 194 195 197 199 200 200 201 203 205 207 207 206 206 207 208 210 210 209 209 208 206 205 204 204 204 203 201 199 198 198 199 200 201 203
221 270 224 169 167 162 179 214 190 125 114 224 127 122 219 203 187 221 257 239 214 319 289 214 201 238 250 254 241 236 257 253 228 229 230 235 241 245 244 214 188 195 200 198 199 203 206 201 195 195 196 198 197 195 199 201 200 201 203 205 207 209 208 207 207 209 210 212 212 212 211 210 209 207 205 204 205 205 203 201 200 200 201 203 203 204
228 276 245 163 27 161 178 204 169 156 204 199 125 184 220 165 171 223 284 291 123 262 271 232 235 277 311 283 256 227 243 254 261 259 243 240 239 237 237 216 195 205 205 207 210 205 207 205 203 204 200 199 199 198 202 203 202 203 204 205 208 210 209 209 210 211 211 212 213 214 213 211 210 209 207 205 203 203 203 203 203 203 203 204 204 203
231 267 252 179 217 249 189 138 280 233 146 131 176 214 196 63 122 165 244 314 289 249 264 261 260 280 302 282 301 45 304 263 262 251 237 237 236 236 239 220 207 214 207 220 229 220 216 212 209 208 205 205 205 204 206 206 205 205 206 207 208 208 210 211 212 212 212 212 213 215 215 213 212 211 211 208 203 201 200 201 203 203 203 202 202 200
222 250 260 184 186 253 109 129 279 313 119 137 204 207 118 148 228 156 177 227 244 246 260 273 275 274 249 256 292 318 266 247 238 232 232 237 235 240 244 233 227 222 209 223 227 223 222 217 214 211 211 212 211 213 213 210 207 207 209 210 210 211 212 213 213 213 215 215 215 217 216 215 214 212 212 209 205 201 200 200 201 201 202 200 198 197
206 228 250 216 185 211 46 175 196 212 187 105 340 334 93 178 188 185 182 169 222 244 257 271 279 275 251 242 245 241 233 232 237 235 238 240 238 242 241 232 226 213 208 216 215 218 220 219 218 214 214 214 213 215 214 209 208 209 211 211 212 215 214 213 213 214 215 216 217 218 218 217 215 213 212 210 207 204 201 201 200 199 199 197 195 195
197 224 237 275 353 228 200 208 181 178 196 187 214 249 247 220 174 224 236 174 208 236 244 252 263 270 262 191 158 237 225 211 220 217 226 236 236 242 244 236 226 214 217 219 213 220 221 221 225 222 222 220 217 217 213 209 210 210 211 212 213 215 214 214 215 215 216 216 217 218 218 217 216 214 212 211 209 206 203 201 200 198 197 195 195 195
202 231 238 218 294 243 239 219 186 182 183 179 199 213 214 220 219 255 251 222 216 235 236 243 252 264 268 193 117 235 212 203 218 212 221 233 230 234 241 237 227 219 224 223 218 222 220 219 224 223 224 221 216 215 213 211 211 209 211 213 213 213 214 216 216 216 216 215 215 217 218 217 216 214 212 211 209 207 204 202 199 197 195 194 195 196
188 211 258 251 232 245 258 239 201 199 187 165 191 203 201 210 207 235 247 246 261 254 241 253 253 258 270 273 291 296 260 212 219 217 224 240 237 230 230 235 240 238 236 233 229 230 225 222 224 220 218 216 215 216 213 211 211 211 213 213 211 212 215 217 217 216 215 214 214 216 216 216 214 213 212 211 209 208 205 202 199 196 195 194 194 195
341 43 272 276 290 301 306 305 218 189 149 123 216 201 193 211 214 229 249 275 279 264 258 263 257 260 277 280 294 303 289 249 223 221 220 234 248 253 252 256 260 254 251 248 242 240 238 236 232 221 217 217 219 219 215 211 212 214 215 213 211 214 217 217 216 215 215 214 215 214 213 213 212 210 210 210 210 209 206 202 198 196 195 194 194 195
311 340 33 317 297 303 309 301 267 223 167 184 214 205 209 227 234 242 260 272 264 254 252 261 264 259 271 279 288 288 283 271 250 238 226 231 247 264 263 258 250 249 257 258 254 252 251 244 231 223 220 218 218 218 216 214 214 214 214 213 213 216 218 216 214 213 213 214 214 212 211 210 208 208 208 208 208 208 207 204 200 197 196 195 194 194
254 206 129 233 242 247 250 252 245 214 189 226 220 220 224 228 232 239 249 247 243 239 237 244 255 252 258 272 278 275 273 268 258 250 243 237 241 245 245 246 250 252 253 252 251 255 258 252 240 232 226 223 222 221 218 216 216 216 215 215 216 217 216 214 212 211 211 211 211 210 209 208 206 206 205 205 205 206 206 204 201 198 197 196 195 193
155 190 204 217 224 231 236 244 245 217 217 247 243 234 231 230 232 232 233 238 241 244 239 235 243 250 252 260 269 270 271 269 264 258 252 245 246 251 250 250 254 252 249 248 252 259 262 257 246 235 228 227 227 225 221 218 216 216 216 217 217 217 215 212 209 208 208 208 208 207 207 206 205 204 203 203 204 202 202 202 201 199 197 197 195 194
166 206 215 220 225 230 235 243 249 246 243 246 247 245 242 237 233 231 233 237 238 248 249 236 236 247 249 248 257 265 269 269 269 268 266 258 249 248 248 247 248 253 256 255 250 249 247 248 247 237 231 231 230 229 226 222 220 218 218 219 217 214 213 210 206 205 204 205 205 206 207 206 204 202 201 201 200 199 199 199 199 199 197 197 196 195
205 225 220 225 229 230 232 239 244 247 249 248 248 249 249 245 240 236 239 239 235 240 250 246 242 247 248 246 251 256 261 266 272 278 277 270 259 247 235 238 252 262 264 250 237 240 236 240 245 239 235 233 230 230 226 224 224 222 222 222 217 213 211 208 203 202 201 202 204 206 206 203 201 200 199 197 196 196 196 196 196 197 196 196 196 196
214 227 216 228 238 233 231 236 239 243 248 249 248 246 248 250 247 243 244 244 242 245 253 257 255 254 253 252 254 256 260 267 278 283 281 276 269 258 240 239 256 268 272 255 234 237 234 235 240 240 238 236 230 228 225 224 223 221 221 221 216 212 210 204 200 199 199 201 205 205 202 200 198 196 195 194 194 194 194 194 194 194 195 195 195 196
213 218 210 225 244 238 232 235 236 237 241 244 245 246 246 249 251 250 250 249 249 252 252 252 255 257 257 255 256 259 263 268 271 272 274 273 269 266 263 265 268 272 278 270 246 241 240 239 242 242 239 236 233 229 224 225 224 223 222 220 215 213 208 201 199 199 200 202 203 201 198 196 195 194 193 193 193 192 191 192 192 192 193 194 194 195
213 225 220 232 249 237 229 234 234 234 237 239 241 244 244 243 243 244 244 241 240 246 250 250 252 253 250 249 251 254 257 260 259 260 264 266 269 275 282 278 275 276 275 267 256 248 243 242 243 240 236 237 236 230 227 228 226 223 223 221 218 213 204 199 198 199 200 201 199 196 196 194 193 192 192 192 191 190 190 190 190 190 191 191 192 192
203 227 230 235 251 246 231 234 234 233 236 235 230 233 236 237 239 242 245 244 240 238 243 246 245 244 245 246 247 249 249 250 250 251 256 263 272 282 283 276 276 277 270 262 261 257 247 243 238 232 234 239 237 234 232 230 226 225 227 225 218 208 199 197 199 198 199 198 196 195 194 193 191 190 191 190 189 189 188 187 188 188 190 190 190 190
211 230 238 238 254 254 240 242 242 233 235 231 212 220 228 233 237 239 241 241 239 237 238 241 244 247 249 246 244 244 245 247 250 253 259 268 277 283 283 280 277 276 273 267 264 262 255 245 237 234 236 239 243 244 242 237 234 234 233 225 211 201 197 196 197 197 197 195 195 194 193 191 190 189 189 189 187 187 186 187 188 188 189 188 188 187
234 236 240 236 253 263 253 254 251 238 235 231 211 215 223 229 234 239 244 245 244 244 244 246 248 248 250 251 249 249 251 254 259 265 269 274 280 289 294 294 293 292 292 288 278 271 263 247 236 238 239 241 245 246 244 241 238 236 230 217 203 198 196 194 194 195 195 194 194 193 191 190 190 189 188 187 186 186 186 186 187 186 187 187 187 187
235 239 238 235 246 256 243 235 246 262 275 185 199 211 221 232 238 245 253 253 251 252 253 254 256 255 256 259 260 261 263 265 268 271 286 315 337 346 335 321 319 319 316 311 300 286 275 258 242 239 242 245 246 243 240 239 235 226 217 208 200 196 193 192 192 193 194 194 194 193 192 190 189 188 187 185 184 185 185 186 186 186 186 186 186 187
223 229 234 240 236 239 251 247 253 271 269 241 215 203 206 215 216 226 246 250 258 286 298 294 289 290 293 297 303 298 285 279 276 281 345 5 3 3 357 343 338 335 332 333 328 316 306 295 281 271 264 257 251 244 242 240 230 214 205 199 194 192 190 189 192 194 194 195 195 194 193 190 188 187 186 185 185 185 186 186 185 186 185 184 183 184
228 226 231 240 226 228 251 254 254 262 260 249 232 213 207 212 209 216 236 242 17 10 4 12 7 356 357 358 350 337 317 286 277 307 8 2 353 353 347 339 340 338 335 340 343 340 331 322 314 308 294 275 264 261 256 245 221 200 195 192 189 188 187 191 197 197 196 197 197 194 193 191 189 188 186 186 187 186 186 185 185 185 185 184 183 183
251 241 239 248 242 238 247 248 249 254 266 316 301 278 265 250 233 232 240 240 14 2 359 22 22 14 11 4 357 359 9 5 324 335 349 342 338 343 339 331 333 333 329 331 337 338 333 331 331 331 327 312 295 294 289 252 212 192 188 191 188 185 189 199 204 201 199 200 197 193 192 191 190 189 188 188 189 187 185 185 184 184 184 184 183 182
288 263 249 248 248 252 254 257 261 252 331 3 339 337 328 304 289 57 247 272 351 341 347 22 16 13 10 358 358 12 15 359 328 322 325 325 321 323 322 318 320 322 322 325 328 329 331 334 339 343 344 335 320 313 296 224 200 192 194 193 185 189 203 208 208 205 202 200 195 192 192 191 191 191 191 190 189 187 185 184 183 182 183 183 182 180
324 293 265 257 254 251 249 253 258 241 74 9 344 345 337 321 54 116 264 312 327 317 323 6 4 5 2 349 353 359 338 313 304 301 305 310 309 309 310 306 306 309 308 308 314 320 324 326 327 327 325 321 318 310 267 197 186 197 202 191 193 208 214 212 207 203 200 197 194 193 193 192 193 193 191 189 186 184 184 184 183 183 182 180 179 177
325 298 278 284 286 275 266 267 264 243 68 22 358 1 4 347 308 310 315 306 302 308 329 349 349 348 339 327 330 319 299 294 294 291 296 302 302 303 307 309 311 312 312 313 315 318 319 315 313 315 313 311 308 292 238 193 187 197 198 200 217 224 222 215 206 201 197 194 193 193 193 193 193 192 189 187 184 182 182 183 184 184 181 178 177 174
303 297 292 288 288 290 287 280 266 254 28 15 360 5 28 15 301 303 312 303 304 330 340 334 332 330 321 317 316 305 297 298 298 297 299 300 301 304 306 310 312 311 314 316 317 319 319 313 305 303 303 301 291 264 223 196 192 193 195 216 233 235 226 216 208 201 197 194 193 193 192 192 192 190 187 185 183 181 180 180 182 182 181 178 174 170
257 265 277 283 294 300 285 282 296 314 348 13 12 352 337 321 290 281 293 304 321 337 326 314 316 317 317 318 315 311 312 311 308 311 311 308 311 313 310 313 315 312 312 311 310 315 316 309 303 303 302 297 281 252 226 210 200 193 207 232 240 233 220 214 206 198 196 195 193 193 192 191 190 189 186 184 182 179 177 177 178 179 181 179 173 168
271 280 280 283 294 285 263 278 300 311 321 348 3 316 310 308 286 235 240 267 295 298 292 298 311 317 322 323 317 315 316 316 317 321 321 319 319 317 316 318 317 314 315 313 314 319 318 312 309 308 306 301 288 263 241 229 212 198 221 244 244 230 217 208 200 195 194 193 192 192 191 189 189 189 187 185 182 179 176 175 175 176 179 179 175 170
307 311 301 294 299 294 279 276 289 305 313 310 308 308 295 276 240 210 221 256 296 313 321 316 313 320 326 326 321 316 313 315 317 317 316 315 313 312 313 313 311 311 313 312 314 318 317 314 311 305 300 298 291 275 257 246 231 221 232 244 241 230 218 205 196 193 192 191 191 190 187 186 187 188 188 187 185 182 179 176 175 175 176 177 177 174
292 298 295 294 301 298 290 291 299 304 303 302 305 309 273 243 238 79 279 298 323 337 338 329 320 320 320 317 315 310 309 312 314 312 312 311 308 309 311 310 308 310 308 307 309 309 308 308 305 299 295 292 288 279 267 255 246 242 244 245 237 226 215 203 195 192 189 189 189 187 186 186 185 186 187 187 187 186 183 181 178 175 174 176 176 174
289 319 309 287 282 280 284 298 302 292 287 291 305 318 321 310 69 58 30 343 339 333 328 324 320 317 315 312 310 309 308 309 308 308 309 309 308 309 310 308 307 307 305 305 305 303 302 300 296 295 293 287 285 281 270 261 258 254 250 246 237 221 209 201 197 193 190 188 186 186 187 187 185 184 186 188 188 187 185 184 182 180 179 179 177 174
282 302 283 271 279 285 286 289 289 285 289 298 306 319 351 14 15 18 355 336 333 330 328 325 320 316 315 313 313 312 307 304 306 309 310 309 308 309 309 307 307 306 305 305 305 302 299 294 290 289 286 282 283 280 269 262 263 260 252 246 234 217 205 201 198 195 191 188 186 187 188 188 188 187 186 186 189 190 188 187 187 185 183 183 182 179
263 270 265 270 280 278 276 279 285 290 295 297 302 337 37 11 348 348 343 338 339 339 335 329 321 317 315 313 315 316 310 307 310 312 310 307 307 309 310 310 309 307 305 306 307 304 298 293 290 288 282 280 280 278 269 264 264 260 253 243 230 215 206 199 195 194 193 190 188 188 187 187 188 188 186 185 186 187 187 188 189 187 183 182 184 184
242 247 252 260 259 260 270 277 272 264 272 281 300 12 53 15 350 341 331 332 335 333 331 327 320 314 312 311 312 312 310 308 308 309 308 305 305 307 309 310 309 308 305 305 304 301 297 295 292 287 284 284 284 279 273 269 266 261 253 241 228 217 208 199 192 193 194 193 193 190 187 186 186 186 186 185 182 180 178 179 183 185 183 180 178 179